When you browse on this site, cookies collect data to enhance your experience and personalize the content and advertising you see.
Visit our Privacy Policy to learn more. By continuing to use the site, you agree to this use of cookies and data.
  • In United Kingdom
  • List of Countries
  • For 7 days
  • Water Temperature
  • Weather Map
  • Weather Widgets
  • user-avatar
    Login

    Hourly Weather Mendoza

    Today, 5 June, Friday

    Time Temperature Precipitation Wind Pressure Humidity
    00:00 +8°C° 0 mm 1 mps 700 mmHg 57%
    01:00 +8°C° 0 mm 1 mps 699 mmHg 58%
    02:00 +8°C° 0 mm 1 mps 699 mmHg 60%
    03:00 +7°C° 0 mm 1 mps 699 mmHg 62%
    04:00 +7°C° 0 mm 1 mps 699 mmHg 65%
    05:00 +7°C° 0 mm 1 mps 699 mmHg 63%
    06:00 +7°C° 0 mm 1 mps 699 mmHg 61%
    07:00 +7°C° 0 mm 1 mps 699 mmHg 59%
    08:00 +10°C° 0 mm 1 mps 700 mmHg 51%
    09:00 +12°C° 0 mm 2 mps 700 mmHg 43%
    10:00 +14°C° 0 mm 2 mps 700 mmHg 35%
    11:00 +15°C° 0 mm 2 mps 700 mmHg 32%
    12:00 +16°C° 0 mm 1 mps 699 mmHg 30%
    13:00 +18°C° 0 mm 1 mps 699 mmHg 27%
    14:00 +18°C° 0 mm 1 mps 698 mmHg 28%
    15:00 +18°C° 0 mm 1 mps 698 mmHg 30%
    16:00 +16°C° 0 mm 1 mps 698 mmHg 31%
    17:00 +15°C° 0 mm 1 mps 698 mmHg 32%
    18:00 +14°C° 0 mm 1 mps 698 mmHg 34%
    19:00 +12°C° 0 mm 1 mps 698 mmHg 35%
    20:00 +12°C° 0 mm 1 mps 698 mmHg 35%
    21:00 +12°C° 0 mm 1 mps 698 mmHg 35%
    22:00 +11°C° 0 mm 1 mps 698 mmHg 34%
    23:00 +11°C° 0 mm 1 mps 698 mmHg 35%

    Tomorrow, 6 June, Saturday

    Time Temperature Precipitation Wind Pressure Humidity
    00:00 +10°C° 0 mm 1 mps 698 mmHg 36%
    01:00 +10°C° 0 mm 1 mps 697 mmHg 37%
    02:00 +9°C° 0 mm 1 mps 697 mmHg 39%
    03:00 +9°C° 0 mm 1 mps 696 mmHg 42%
    04:00 +8°C° 0 mm 1 mps 696 mmHg 44%
    05:00 +8°C° 0 mm 1 mps 696 mmHg 44%
    06:00 +8°C° 0 mm 1 mps 696 mmHg 45%
    07:00 +8°C° 0 mm 1 mps 696 mmHg 45%
    08:00 +11°C° 0 mm 1 mps 696 mmHg 41%
    09:00 +13°C° 0 mm 1 mps 697 mmHg 36%
    10:00 +15°C° 0 mm 1 mps 697 mmHg 32%
    11:00 +16°C° 0 mm 1 mps 696 mmHg 29%
    12:00 +18°C° 0 mm 1 mps 696 mmHg 27%
    13:00 +19°C° 0 mm 2 mps 696 mmHg 24%
    14:00 +19°C° 0 mm 1 mps 696 mmHg 25%
    15:00 +19°C° 0 mm 1 mps 696 mmHg 26%
    16:00 +18°C° 0 mm 1 mps 696 mmHg 27%
    17:00 +16°C° 0 mm 1 mps 695 mmHg 28%
    18:00 +15°C° 0 mm 1 mps 695 mmHg 29%
    19:00 +13°C° 0 mm 1 mps 695 mmHg 30%
    20:00 +13°C° 0 mm 1 mps 695 mmHg 30%
    21:00 +13°C° 0 mm 1 mps 696 mmHg 29%
    22:00 +12°C° 0 mm 2 mps 696 mmHg 29%
    23:00 +12°C° 0 mm 1 mps 696 mmHg 32%

    Day after tomorrow, 7 June, Sunday

    Time Temperature Precipitation Wind Pressure Humidity
    00:00 +11°C° 0 mm 1 mps 695 mmHg 34%
    01:00 +10°C° 0 mm 1 mps 695 mmHg 36%
    02:00 +9°C° 0 mm 2 mps 695 mmHg 36%
    03:00 +9°C° 0 mm 2 mps 695 mmHg 35%
    04:00 +9°C° 0 mm 2 mps 695 mmHg 35%
    05:00 +9°C° 0 mm 2 mps 696 mmHg 34%
    06:00 +9°C° 0 mm 2 mps 696 mmHg 33%
    07:00 +9°C° 0 mm 2 mps 697 mmHg 32%
    08:00 +12°C° 0 mm 2 mps 697 mmHg 29%
    09:00 +13°C° 0 mm 3 mps 697 mmHg 26%
    10:00 +17°C° 0 mm 3 mps 698 mmHg 23%
    11:00 +17°C° 0 mm 3 mps 698 mmHg 23%
    12:00 +18°C° 0 mm 3 mps 697 mmHg 23%
    13:00 +18°C° 0 mm 2 mps 697 mmHg 24%
    14:00 +18°C° 0 mm 2 mps 697 mmHg 26%
    15:00 +17°C° 0 mm 2 mps 697 mmHg 28%
    16:00 +17°C° 0 mm 2 mps 697 mmHg 31%
    17:00 +16°C° 0 mm 3 mps 698 mmHg 34%
    18:00 +13°C° 0 mm 3 mps 698 mmHg 38%
    19:00 +12°C° 0 mm 3 mps 698 mmHg 42%
    20:00 +12°C° 0 mm 2 mps 698 mmHg 43%
    21:00 +12°C° 0 mm 2 mps 699 mmHg 44%
    22:00 +10°C° 0 mm 2 mps 699 mmHg 45%
    23:00 +10°C° 0 mm 2 mps 699 mmHg 45%

    8 June, Monday

    Time Temperature Precipitation Wind Pressure Humidity
    00:00 +9°C° 0 mm 2 mps 699 mmHg 45%
    01:00 +10°C° 0 mm 1 mps 699 mmHg 45%
    02:00 +10°C° 0 mm 1 mps 699 mmHg 46%
    03:00 +9°C° 0 mm 1 mps 699 mmHg 48%
    04:00 +9°C° 0 mm 1 mps 699 mmHg 49%
    05:00 +8°C° 0 mm 2 mps 698 mmHg 50%
    06:00 +8°C° 0 mm 2 mps 698 mmHg 50%
    07:00 +7°C° 0 mm 2 mps 698 mmHg 51%
    08:00 +10°C° 0 mm 2 mps 698 mmHg 46%
    09:00 +13°C° 0 mm 2 mps 699 mmHg 41%
    10:00 +15°C° 0 mm 2 mps 699 mmHg 36%
    11:00 +16°C° 0 mm 2 mps 699 mmHg 33%
    12:00 +17°C° 0 mm 2 mps 698 mmHg 29%
    13:00 +18°C° 0 mm 2 mps 698 mmHg 26%
    14:00 +18°C° 0 mm 1 mps 698 mmHg 28%
    15:00 +18°C° 0 mm 1 mps 698 mmHg 29%
    16:00 +18°C° 0 mm 1 mps 698 mmHg 30%
    17:00 +15°C° 0 mm 1 mps 698 mmHg 32%
    18:00 +14°C° 0 mm 1 mps 698 mmHg 34%
    19:00 +13°C° 0 mm 1 mps 698 mmHg 36%
    20:00 +13°C° 0 mm 1 mps 699 mmHg 36%
    21:00 +13°C° 0 mm 2 mps 699 mmHg 35%
    22:00 +13°C° 0 mm 2 mps 699 mmHg 34%
    23:00 +11°C° 0 mm 3 mps 699 mmHg 36%

    9 June, Tuesday

    Time Temperature Precipitation Wind Pressure Humidity
    00:00 +11°C° 0 mm 4 mps 699 mmHg 38%
    01:00 +9°C° 0 mm 5 mps 699 mmHg 40%
    02:00 +8°C° 0 mm 5 mps 699 mmHg 44%
    03:00 +7°C° 0 mm 4 mps 699 mmHg 47%
    04:00 +8°C° 0 mm 3 mps 699 mmHg 51%
    05:00 +7°C° 0 mm 3 mps 699 mmHg 51%
    06:00 +7°C° 0 mm 3 mps 699 mmHg 52%
    07:00 +7°C° 0 mm 2 mps 699 mmHg 52%
    08:00 +8°C° 0 mm 2 mps 699 mmHg 46%
    09:00 +10°C° 0 mm 2 mps 699 mmHg 40%
    10:00 +12°C° 0 mm 2 mps 699 mmHg 35%
    11:00 +13°C° 0 mm 1 mps 698 mmHg 34%
    12:00 +13°C° 0 mm 1 mps 697 mmHg 33%
    13:00 +14°C° 0 mm 1 mps 697 mmHg 32%
    14:00 +14°C° 0 mm 1 mps 696 mmHg 32%
    15:00 +14°C° 0 mm 1 mps 696 mmHg 32%
    16:00 +14°C° 0 mm 1 mps 696 mmHg 32%
    17:00 +13°C° 0 mm 1 mps 696 mmHg 33%
    18:00 +12°C° 0 mm 1 mps 696 mmHg 35%
    19:00 +11°C° 0 mm 1 mps 696 mmHg 36%
    20:00 +11°C° 0 mm 1 mps 696 mmHg 36%
    21:00 +9°C° 0 mm 2 mps 696 mmHg 36%
    22:00 +9°C° 0 mm 2 mps 696 mmHg 36%
    23:00 +8°C° 0 mm 2 mps 696 mmHg 37%

    10 June, Wednesday

    Time Temperature Precipitation Wind Pressure Humidity
    00:00 +9°C° 0 mm 1 mps 696 mmHg 38%
    01:00 +8°C° 0 mm 1 mps 696 mmHg 39%
    02:00 +8°C° 0 mm 1 mps 696 mmHg 40%
    03:00 +8°C° 0 mm 1 mps 696 mmHg 41%
    04:00 +7°C° 0 mm 1 mps 695 mmHg 42%
    05:00 +7°C° 0 mm 1 mps 696 mmHg 42%
    06:00 +7°C° 0 mm 1 mps 696 mmHg 42%
    07:00 +7°C° 0 mm 1 mps 696 mmHg 42%
    08:00 +10°C° 0 mm 1 mps 697 mmHg 36%
    09:00 +12°C° 0 mm 1 mps 697 mmHg 31%
    10:00 +13°C° 0 mm 0 mps 697 mmHg 26%
    11:00 +15°C° 0 mm 1 mps 697 mmHg 25%
    12:00 +16°C° 0 mm 1 mps 696 mmHg 24%
    13:00 +16°C° 0 mm 1 mps 696 mmHg 23%
    14:00 +16°C° 0 mm 1 mps 696 mmHg 25%
    15:00 +16°C° 0 mm 1 mps 695 mmHg 27%
    16:00 +16°C° 0 mm 1 mps 695 mmHg 28%
    17:00 +14°C° 0 mm 1 mps 695 mmHg 30%
    18:00 +13°C° 0 mm 1 mps 695 mmHg 31%
    19:00 +12°C° 0 mm 1 mps 695 mmHg 32%
    20:00 +12°C° 0 mm 1 mps 695 mmHg 32%
    21:00 +11°C° 0 mm 1 mps 695 mmHg 33%
    22:00 +10°C° 0 mm 2 mps 695 mmHg 33%
    23:00 +10°C° 0 mm 1 mps 694 mmHg 34%
    Show more